Weather History for HKMO - December, 2013

Change the Weather History Date:

Monday, December 9, 2013

  Actual Average Record
Temperature  
Mean Temperature 82 °F -  
Max Temperature 90 °F 91 °F 93 °F (2011)
Min Temperature 73 °F 72 °F 73 °F (1997)
Cooling Degree Days 16    
Growing Degree Days 32 (Base 50)    
Moisture  
Dew Point 73 °F    
Average Humidity 77    
Maximum Humidity 94    
Minimum Humidity 50    
Precipitation  
Precipitation 0.20 in 0.08 in - ()
Sea Level Pressure  
Sea Level Pressure 29.87 in    
Wind  
Wind Speed 4 mph ()    
Max Wind Speed 18 mph    
Max Gust Speed -    
Visibility 8.1 miles    
Events Rain    
Averages and records for this station are not official NWS values.
T = Trace of Precipitation, MM = Missing Value Source: Averaged Metar Reports

Daily Weather History Graph

Daily Weather History Graph

Search for Another Location

Airport or City:

Trip Planner

Search our weather history database for the weather conditions in past years. The results will help you decide how hot, cold, wet, or windy it might be!

Date:

Astronomy

Dec. 09, 2013 Rise Set
Actual Time 6:03 AM EAT 6:24 PM EAT
Civil Twilight 5:40 AM EAT 6:47 PM EAT
Nautical Twilight 5:14 AM EAT 7:13 PM EAT
Astronomical Twilight 4:47 AM EAT 7:39 PM EAT
Moon 12:04 PM EAT (12/9) No Moon Set
Length of Visible Light 13h 06m
Length of Day
12h 21m
Waxing Crescent, 47% of the Moon is Illuminated
Dec 9
Waxing Crescent
Dec 9
First Quarter
Dec 17
Full
Dec 25
Last Quarter
Jan 1
New

Hourly Weather History & Observations

Time (EAT) Temp. Heat Index Dew Point Humidity Pressure Visibility Wind Dir Wind Speed Gust Speed Precip Events Conditions
12:00 AM 77.0 °F - 71.6 °F 83% 29.92 in 6.2 mi Calm Calm - N/A   Mostly Cloudy
1:00 AM 77.0 °F - 71.6 °F 83% 29.89 in 6.2 mi Calm Calm - N/A   Scattered Clouds
2:00 AM 77.0 °F - 73.4 °F 89% 29.89 in 6.2 mi Calm Calm - N/A   Scattered Clouds
3:00 AM 76 °F - 74 °F 90% 29.87 in 19 mi Calm Calm - -   Scattered Clouds
3:00 AM 77.0 °F - 73.4 °F 89% 29.86 in 6.2 mi Calm Calm - N/A   Mostly Cloudy
4:00 AM 77.0 °F - 73.4 °F 89% 29.89 in 6.2 mi Calm Calm - N/A   Mostly Cloudy
4:30 AM 75.2 °F - 73.4 °F 94% 29.89 in 6.2 mi Calm Calm - N/A   Partly Cloudy
6:00 AM 75.2 °F - 73.4 °F 94% 29.89 in 6.2 mi Calm Calm - N/A   Mostly Cloudy
7:00 AM 77.0 °F - 75.2 °F 94% 29.92 in 6.2 mi SSW 4.6 mph - N/A   Mostly Cloudy
8:00 AM 80.6 °F 85.4 °F 73.4 °F 79% 29.92 in 6.2 mi South 13.8 mph - N/A   Mostly Cloudy
9:00 AM 84 °F - 73 °F 61% 29.92 in 19 mi WSW 13.8 mph - -   Scattered Clouds
9:00 AM 84.2 °F 90.9 °F 73.4 °F 70% 29.92 in 6.2 mi WSW 13.8 mph - N/A   Mostly Cloudy
10:00 AM 86.0 °F 91.8 °F 71.6 °F 62% 29.92 in 6.2 mi South 11.5 mph - N/A   Mostly Cloudy
11:00 AM 87.8 °F 93.8 °F 71.6 °F 58% 29.89 in 6.2 mi South 6.9 mph - N/A   Mostly Cloudy
12:00 PM 89.6 °F 98.2 °F 73.4 °F 59% 29.86 in 6.2 mi South 11.5 mph - N/A   Mostly Cloudy
1:00 PM 89.6 °F 98.2 °F 73.4 °F 59% 29.83 in 6.2 mi South 11.5 mph - N/A   Mostly Cloudy
2:00 PM 87.8 °F 95.6 °F 73.4 °F 62% 29.80 in 6.2 mi SSE 11.5 mph - N/A   Scattered Clouds
3:00 PM 89 °F - 73 °F 50% 29.78 in 19 mi SSE 18.4 mph - -   Scattered Clouds
3:00 PM 89.6 °F 98.2 °F 73.4 °F 59% 29.77 in 6.2 mi SSE 18.4 mph - N/A   Partly Cloudy
5:00 PM 87.8 °F 93.8 °F 71.6 °F 58% 29.77 in 6.2 mi South 11.5 mph - N/A   Partly Cloudy
6:00 PM 84.2 °F 89.6 °F 71.6 °F 66% 29.83 in 6.2 mi South 11.5 mph - N/A   Scattered Clouds
7:00 PM 82.4 °F 89.5 °F 75.2 °F 79% 29.86 in 6.2 mi SSE 4.6 mph - N/A   Mostly Cloudy
8:00 PM 80.6 °F 86.2 °F 75.2 °F 84% 29.86 in 6.2 mi ESE 6.9 mph - N/A   Scattered Clouds
9:00 PM 79 °F - 75 °F 83% 29.87 in 19 mi Calm Calm - - Rain Light Rain
9:00 PM 78.8 °F - 75.2 °F 89% 29.86 in 6.2 mi Calm Calm - N/A   Partly Cloudy
10:00 PM 78.8 °F - 75.2 °F 89% 29.89 in 6.2 mi Calm Calm - N/A   Scattered Clouds
11:00 PM 77.0 °F - 75.2 °F 94% 29.86 in 6.2 mi Calm Calm - N/A   Scattered Clouds